Regional Weather Roundup
Issued by NWS

Home | Current Version | Previous Version | Graphics & Text | Print | Product List | Glossary On
Versions: 1 2 3 4 5 6 7 8 9 10 11 12 13 14 15 16 17 18 19 20 21 22 23 24 25 26 27 28 29 30 31 32 33 34 35 36 37 38 39 40 41 42 43 44 45 46 47 48 49 50
000
ASUS43 KMPX 260601
RWRMN
WEATHER ROUNDUP FOR MINNESOTA
NATIONAL WEATHER SERVICE TWIN CITIES/CHANHASSEN MN
100 AM CDT TUE MAY 26 2015


NOTE: "FAIR" INDICATES FEW OR NO CLOUDS BELOW 12,000 FEET WITH NO
SIGNIFICANT WEATHER AND/OR OBSTRUCTIONS TO VISIBILITY. N/A MEANS
CURRENT SKY AND/OR WEATHER CONDITIONS ARE NOT AVAILABLE.

MNZ060>063-068>070-260700-
   Twin Cities Metro

CITY           SKY/WX    TMP DP  RH WIND       PRES   REMARKS
TWIN CITIES    MOCLDY    63  57  81 W6        29.78S
6HR MIN TEMP:  63; 6HR MAX TEMP:  72;

ST PAUL        MOCLDY    60  58  92 CALM      29.79R
CRYSTAL        PTCLDY    60  56  86 SW3       29.77R
BLAINE         PTCLDY    63  59  88 S3        29.78S
LAKEVILLE      CLOUDY    57  57 100 CALM      29.79R
EDEN PRAIRIE   PTCLDY    60  57  89 SW5       29.77S
6HR MIN TEMP:  60; 6HR MAX TEMP:  72;

SOUTH ST PAUL  MOCLDY    62  58  87 SW3       29.78S
LAKE ELMO      FAIR      61  59  94 SW6       29.79S
$$
MNZ001>005-007-008-013>017-022>024-027-028-260700-
   Northwest Minnesota

CITY           SKY/WX    TMP DP  RH WIND       PRES   REMARKS
BEMIDJI        MOCLDY    51  50  99 CALM      29.86S
HALLOCK        CLEAR     57  48  72 S12       29.80R
ROSEAU         CLEAR     57  52  82 S9        29.82R
WARROAD        CLEAR     55  52  88 SW8       29.82R
THIEF RVR FALL CLEAR     52  48  87 S8        29.86R
CROOKSTON      CLEAR     54  50  87 SW8       29.87R
FOSSTON        PTCLDY    46  46 100 CALM      29.87R
DETROIT LAKES  PTCLDY    52  50  93 NW5       29.88R
MOORHEAD       CLEAR     52  52 100 CALM      29.88S
PARK RAPIDS    CLOUDY    53  51  93 N5        29.85R
MAHNOMEN       FAIR      51  50  94 CALM      29.87R
$$
MNZ006-009>011-018-025>026-260700-
   North Central Minnesota

CITY           SKY/WX    TMP DP  RH WIND       PRES   REMARKS
BAUDETTE       PTCLDY    52  49  89 S7        29.83R
FLAG ISLAND    CLEAR     57  54  88 S8        29.79R
INTL FALLS     MOCLDY    51  49  92 CALM      29.84R
6HR MIN TEMP:  51; 6HR MAX TEMP:  58; 6HR PCP: TRACE;

WASKISH        MOCLDY    50  48  93 CALM      29.86R
BIG FORK       CLOUDY    54  52  94 CALM      29.85R
LONGVILLE      CLOUDY    54  52  94 N5        29.83R
GRAND RAPIDS   CLOUDY    54  48  82 N3        29.82S
CRANE LAKE     CLOUDY    50  48  93 CALM      29.85R FOG
ORR            CLOUDY    52  50  93 CALM      29.82R
COOK           CLOUDY    54  52  94 CALM      29.84R
WALKER         CLOUDY    53  52  94 CALM      29.85R
$$
MNZ012-019>021-037-260700-
   Northeast Minnesota

CITY           SKY/WX    TMP DP  RH WIND       PRES   REMARKS
DULUTH         DRIZZLE   53  50  89 W5        29.81R FOG
6HR MIN TEMP:  49; 6HR MAX TEMP:  53; 6HR PCP:  0.06;

ELY            CLOUDY    54  50  87 CALM      29.82S
HIBBING        CLOUDY    54  50  86 CALM      29.82R
EVELETH        CLOUDY    54  52  94 CALM      29.83R
DULUTH HARBOR  FOG       46  45  93 CALM      29.81S VSB 1
TWO HARBORS    CLOUDY    55  50  82 CALM      29.79R HAZE
GRAND MARAIS     N/A     48  46  93 CALM      29.78F
G MARAIS ARPRT LGT RAIN  52  46  82 N9        29.80F
$$
MNZ029>031-032-039>041-046>048-054>057-064-260700-
   West Central Minnesota

CITY           SKY/WX    TMP DP  RH WIND       PRES   REMARKS
FERGUS FALLS   PTCLDY    52  52 100 NW9       29.87R
WHEATON        CLEAR     48  48 100 CALM      29.89R
MORRIS         PTCLDY    55  52  88 N9        29.83S
ALEXANDRIA     CLOUDY    55  51  86 NE7       29.84R
ELBOW LAKE     FAIR      53  50  89 CALM      29.85R
WADENA         MOCLDY    52  50  93 N5        29.84R
GLENWOOD       CLOUDY    55  54  94 NE8       29.83S
APPLETON       PTCLDY    55  52  88 CALM      29.82F
BENSON         PTCLDY    55  52  88 N3        29.82S
ORTONVILLE     PTCLDY    54  48  82 N10       29.84F
MADISON        CLOUDY    57  52  82 NW7       29.84R
WILLMAR        CLOUDY    57  55  94 NW5       29.82S
$$
MNZ033>034-036-042>043-049>051-058-059-260700-
   Central Minnesota

CITY           SKY/WX    TMP DP  RH WIND       PRES   REMARKS
ST CLOUD       MOCLDY    57  55  93 N7        29.77F
6HR MIN TEMP:  54; 6HR MAX TEMP:  67;

SAUK CENTRE    CLOUDY    56  53  90 N9        29.81F
PAYNESVILLE    CLOUDY    54  53  96 W3        29.80S
AITKIN         CLOUDY    55  48  76 NE3       29.80R
PINE RIVER     MOCLDY    54  50  87 NE7       29.86R
BRAINERD       CLOUDY    54  53  97 N8        29.82R
STAPLES        PTCLDY    54  52  94 CALM      29.83R
LONG PRAIRIE   CLOUDY    54  52  94 N8        29.82S
LITTLE FALLS   CLOUDY    54  52  94 CALM      29.80F
LITCHFIELD     PTCLDY    57  57 100 W6        29.80R
BUFFALO        CLEAR     57  55  91 SW3       29.79S
MAPLE LAKE     PTCLDY    57  56  96 W3        29.80S
$$
MNZ037-044-045-052-053-260700-
   East Central Minnesota

CITY           SKY/WX    TMP DP  RH WIND       PRES   REMARKS
PRINCETON      PTCLDY    55  54  94 CALM      29.78S
MORA           CLOUDY    54  52  94 N3        29.81R
CAMBRIDGE      CLEAR     59  52  77 CALM      29.76S
RUSH CITY      MOCLDY    57  55  91 CALM      29.77S
MOOSE LAKE     DRIZZLE   50  50 100 CALM      29.79R
HINCKLEY       CLOUDY    50  50 100 N6        29.79R
CLOQUET        RAIN      52  50  93 N5        29.80R
MCGREGOR       CLOUDY    54  52  94 CALM      29.81S
$$
MNZ071>073-080-081-089-090-097-098-260700-
   Southwest Minnesota

CITY           SKY/WX    TMP DP  RH WIND       PRES   REMARKS
MONTEVIDEO     CLOUDY    57  55  94 NE8       29.82F
GRANITE FALLS  CLOUDY    55  53  92 W5        29.84R
CANBY          MOCLDY    55  51  88 NW7       29.85R
MARSHALL       PTCLDY    55  48  76 NW7       29.82F
REDWOOD FALLS  MOCLDY    56  54  93 NW8       29.80F
OLIVIA         MOCLDY    52  50  93 CALM      29.81R
WINDOM         CLOUDY    57  55  94 CALM      29.81F
WORTHINGTON    CLOUDY    57  54  88 NE3       29.82S
JACKSON        CLOUDY    59  57  94 NE3       29.83S
TRACY          PTCLDY    55  54  96 NW6       29.82F
SLAYTON        MOCLDY    55  55  99 NW7       29.83F
$$
MNZ065>067-074>077-082>085-091>093-260700-
   South Central Minnesota

CITY           SKY/WX    TMP DP  RH WIND       PRES   REMARKS
MANKATO        CLOUDY    61  57  88 CALM      29.80S
NEW ULM        CLOUDY    57  55  94 NW5       29.79F
ST JAMES       CLOUDY    61  57  88 CALM      29.82S
FAIRMONT       CLOUDY    63  55  77 NE6       29.80F
GLENCOE        MOCLDY    59  57  94 W3        29.79S
FARIBAULT      CLOUDY    59  57  94 CALM      29.81R FOG
OWATONNA       CLOUDY    59  55  88 CALM      29.81R
WASECA         CLOUDY    59  55  88 CALM      29.81S
ALBERT LEA     CLOUDY    66  59  77 SW7       29.82R
$$
MNZ078>079-086>088-094>096-260700-
   Southeast Minnesota

CITY           SKY/WX    TMP DP  RH WIND       PRES   REMARKS
ROCHESTER      CLOUDY    65  60  84 S14       29.84R
6HR MIN TEMP:  63; 6HR MAX TEMP:  72;

RED WING       MOCLDY    57  55  94 CALM      29.78R FOG
STANTON        CLOUDY    59  57  92 CALM      29.79R
DODGE CENTER   CLOUDY    64  59  82 S10       29.82R
WINONA         MOCLDY    70  61  73 SW5       29.81R
AUSTIN         CLOUDY    64  59  82 S9        29.84R
PRESTON        RAIN      65  58  77 S29G37    29.86R
$$
ABBREVIATIONS USED IN REMARKS
   TC - TEMPERATURES IN CELSIUS
  WCI - WIND CHILL INDEX
   HX - HEAT INDEX
  VSB - VISIBILITY
$$


USA.gov is the U.S. government's official web portal to all federal, state and local government web resources and services.